Hors Challenge

Fintro Liège 10 Km (10.00 km)

dimanche 06 octobre 2019

Le Classement original se trouve sur : http://www.chronorace.be
 
FINTRO LIÈGE 10 KM
DISTANCE : 10.00 km
dimanche 06 octobre 2019
 
Place Dos NOM Catégorie Pl/cat temps temps/km Vitesse
1 1098 SCHYNS NICOLAS SH 1 0:29:56 03:00 20.05
2 621 KIPKEMBOI ISAAC SH 2 0:29:58 03:00 20.03
3 1089 DEFLANDRE CLÉMENT SH 3 0:30:03 03:00 19.97
4 1540 DELY ARNAUD SH 4 0:30:06 03:01 19.94
5 1537 FINTOLINI DORIAN SH 5 0:30:15 03:01 19.84
6 1034 DELGUSTE MARTIN SH 6 0:30:18 03:02 19.81
7 1040 ADAM THADDÉE SH 7 0:30:30 03:03 19.68
8 1102 NOEL ENZO SH 8 0:30:35 03:03 19.62
9 28 NOEL ADRIEN SH 9 0:31:25 03:08 19.10
10 821 STRAET PAOLO SH 10 0:31:26 03:09 19.09
11 1091 DEGEY BRICE SH 11 0:31:45 03:10 18.90
12 537 HAVET DAVID SH 12 0:32:06 03:13 18.70
13 1425 TERRITO JOAKIM SH 13 0:32:10 03:13 18.66
14 1533 SPANU LAURENT SH 14 0:32:20 03:14 18.56
15 1048 GILLET GEOFFRAY SH 15 0:32:25 03:14 18.51
16 760 MERTZ CHRISTOPHER SH 16 0:32:27 03:15 18.50
17 637 TIMMERMANN ALEXANDRE SH 17 0:32:27 03:15 18.50
18 933 FUDVOYE THIBAUT SH 18 0:32:35 03:15 18.42
19 697 MAZID MOHAMMED SH 19 0:32:37 03:16 18.40
20 1046 CASTERMANS MICHAËL SH 20 0:32:42 03:16 18.35
21 1036 KEBRON QUENTIN SH 21 0:32:49 03:17 18.29
22 1085 MAROYE NICOLAS SH 22 0:32:51 03:17 18.27
23 790 PHILIPPE PATRICK V2 1 0:32:57 03:18 18.21
24 822 DECAMK FRANCOIS SH 23 0:33:00 03:18 18.19
25 1512 WEBER CLÉMENT SH 24 0:33:03 03:18 18.16
26 145 DEMIRKAZAN MIKAIL SH 25 0:33:03 03:18 18.16
27 530 FAUCONNIER SEB SH 26 0:33:03 03:18 18.16
28 839 TRIAILLE THIBAULT SH 27 0:33:04 03:18 18.15
29 929 DETHIER GAËL V1 1 0:33:09 03:19 18.10
30 864 VALET MAXIME SH 28 0:33:21 03:20 18.00
31 1053 CARDILLO JOACHIM SH 29 0:33:27 03:21 17.94
32 8 SERVAIS ALEX SH 30 0:33:34 03:21 17.88
33 1559 JACOB JUSTIN SH 31 0:33:39 03:22 17.84
34 989 DARQUENNE GUILLAUME SH 32 0:33:59 03:24 17.66
35 797 OUMAROU YAHAYA SH 33 0:34:02 03:24 17.63
36 962 SPANU EDOUARD SH 34 0:34:04 03:24 17.62
37 782 FRÈREJEAN SÉBASTIEN SH 35 0:34:09 03:25 17.57
38 466 VAN HEE THOMAS SH 36 0:34:12 03:25 17.55
39 1084 TROISFONTAINES ALBAN JH 1 0:34:12 03:25 17.55
40 5 MLECZKO OLIVIER BORIS V1 2 0:34:18 03:26 17.50
41 1074 BOLAND PATRICK V1 3 0:34:19 03:26 17.49
42 905 DUMOULIN MAXIME SH 37 0:34:20 03:26 17.48
43 820 TECQMENNE MARTIN SH 38 0:34:21 03:26 17.47
44 478 HUBIN VINCENT SH 39 0:34:22 03:26 17.46
45 922 NR 922 xxx   0:34:23 03:26 17.46
46 1548 KONINCKX STÉPHANE SH 40 0:34:28 03:27 17.41
47 9 HENNUY AMAURY SH 41 0:34:29 03:27 17.40
48 449 VEREECKEN HUGO JH 2 0:34:35 03:27 17.35
49 1092 AUGUSTIN CRISMER SH 42 0:34:45 03:28 17.27
50 900 BRISY PHILIPPE V1 4 0:34:47 03:29 17.25
51 342 LOUIS SÉBASTIEN EMMANUEL SH 43 0:34:53 03:29 17.20
52 978 DEHU DAMIEN SH 44 0:34:55 03:29 17.19
53 930 RONDAL BENJAMIN SH 45 0:34:56 03:30 17.18
54 1083 SCHOLZEN CHRISTOPHE SH 46 0:34:56 03:30 17.18
55 1095 WIMMER JULIEN SH 47 0:34:58 03:30 17.16
56 1556 LAMOLINE GUILLAUME SH 48 0:34:59 03:30 17.16
57 915 SMETS FLORENT SH 49 0:35:00 03:30 17.15
58 863 GOSSIAUX RENAN SH 50 0:35:00 03:30 17.15
59 355 ROCKS DIDIER SH 51 0:35:02 03:30 17.13
60 1394 ROCKS STEPHANE SH 52 0:35:04 03:30 17.11
61 605 BAUDINET JEAN PIERRE V2 2 0:35:09 03:31 17.07
62 823 LODRINI JÉRÔME SH 53 0:35:24 03:32 16.95
63 796 EL MKABLI EL IDRISS V1 5 0:35:25 03:32 16.95
64 1398 COUPE ROMAIN SH 54 0:35:32 03:33 16.89
65 1549 ERNENS GAETHAN SH 55 0:35:36 03:34 16.86
66 1030 RUZZICONI ELLIOT SH 56 0:35:38 03:34 16.84
67 1144 GERARD XAVIER SH 57 0:35:40 03:34 16.83
68 614 LEDENT ROMAIN SH 58 0:35:42 03:34 16.81
69 904 DE COCK FLORENCE SD 1 0:35:52 03:35 16.73
70 652 COUTREZ ALEXANDRE SH 59 0:35:57 03:36 16.69
71 1097 CAPELLE CHRISTIAN V2 3 0:35:58 03:36 16.69
72 913 HEINS RAPHAËL V1 6 0:36:02 03:36 16.66
73 1110 CRUL TIMOTHY SH 60 0:36:07 03:37 16.62
74 513 JENNEN THOMAS JH 3 0:36:09 03:37 16.60
75 604 REUL ANTOINE SH 61 0:36:10 03:37 16.59
76 1325 DIDIER MATHIEU SH 62 0:36:11 03:37 16.59
77 1094 DEWAIDE ANTONI V1 7 0:36:12 03:37 16.58
78 801 KAISER BORIS SH 63 0:36:14 03:37 16.56
79 1088 DILIBERTO ANTONINO V2 4 0:36:18 03:38 16.53
80 685 HUBERT ANTOINE SH 64 0:36:20 03:38 16.52
81 150 BOUVIER JONAS SH 65 0:36:22 03:38 16.50
82 16 LEFEVRE PIERRE SH 66 0:36:33 03:39 16.42
83 1550 JANSEN BENOÎT SH 67 0:36:33 03:39 16.42
84 919 TAGLIAFERO CÉDRIC SH 68 0:36:36 03:40 16.40
85 923 HASTIR RENAUD SH 69 0:36:41 03:40 16.36
86 1561 BONNIVERT ARNAUD SH 70 0:36:42 03:40 16.35
87 1555 ANDRÉ JEAN-ERIC SH 71 0:36:45 03:40 16.33
88 701 BRANS BENOÎT JEAN-MARC SH 72 0:36:46 03:41 16.32
89 1026 SOLBREUX ANTOINE SH 73 0:36:51 03:41 16.29
90 826 LAURENT AGNÈS SD 2 0:36:56 03:42 16.25
91 525 IDRAF MOURAD V1 8 0:36:58 03:42 16.24
92 436 VITA GAETANO V1 9 0:37:00 03:42 16.22
93 808 RADERMECKER ARTHUR xxx   0:37:01 03:42 16.21
94 215 BONNEVIE FERGUS SH 74 0:37:04 03:42 16.19
95 485 BAYARD JULIEN JH 4 0:37:11 03:43 16.14
96 1372 FONTAINE ANTOINE SH 75 0:37:16 03:44 16.10
97 809 VANHERCK JEAN V3 1 0:37:16 03:44 16.10
98 216 DANZE THOMAS SH 76 0:37:26 03:45 16.03
99 791 TOSI IRENE SD 3 0:37:27 03:45 16.03
100 1560 VOZ VICTOR SH 77 0:37:39 03:46 15.94
101 1071 VAN DER AUWERMEULEN JEAN-PHILIPPE V1 10 0:37:43 03:46 15.91
102 477 DAISOMONT GILLES SH 78 0:37:44 03:46 15.91
103 907 HOST SANDRINE A1 1 0:37:45 03:46 15.90
104 41 LECLERQ JORDAN SH 79 0:37:49 03:47 15.87
105 803 SNYERS CHARLES SH 80 0:37:51 03:47 15.86
106 15 TIMMERMANS GUILLAUME SH 81 0:37:53 03:47 15.84
107 457 ARGENTO CARMELO SH 82 0:37:54 03:47 15.84
108 1542 BARTHOLOME JUAN SH 83 0:37:56 03:48 15.82
109 920 EVRARD BENJAMIN SH 84 0:37:57 03:48 15.81
110 508 DAEMS MATHIEU SH 85 0:38:07 03:49 15.75
111 10 NICOLAS FRANIS V2 5 0:38:10 03:49 15.72
112 366 SALEM KHODR SH 86 0:38:11 03:49 15.72
113 271 CLAROS FABIO SH 87 0:38:13 03:49 15.70
114 1087 D'AVELINO MICHAEL V1 11 0:38:16 03:50 15.68
115 1163 LEGRAND FLORIAN SH 88 0:38:22 03:50 15.64
116 283 ROYEN JULIEN SH 89 0:38:23 03:50 15.64
117 1033 LARSILLE KEVIN SH 90 0:38:27 03:51 15.61
118 868 FISCHER LINE SD 4 0:38:30 03:51 15.59
119 289 FUDVOYE LAURENT SH 91 0:38:31 03:51 15.58
120 520 TASSET JEAN-LUC V2 6 0:38:33 03:51 15.57
121 1562 NOEL DOMINIQUE V2 7 0:38:33 03:51 15.57
122 1081 DELGUSTE SOPHIE SD 5 0:38:40 03:52 15.52
123 229 ESSABRI YOANN SH 92 0:38:42 03:52 15.51
124 686 MÉLON FLORIAN SH 93 0:38:42 03:52 15.51
125 139 DELRUELLE NATHAN SH 94 0:38:48 03:53 15.47
126 1008 MAURISSEN CHARLES SH 95 0:38:52 03:53 15.44
127 354 LEJEUNE BERNARD V1 12 0:38:53 03:53 15.43
128 1574 HANSSEN REGIS SH 96 0:38:57 03:54 15.41
129 667 AERTS CORENTIN SH 97 0:38:57 03:54 15.41
130 235 DEVILLET GUÉNAËL V1 13 0:38:58 03:54 15.40
131 630 DIDIER PIERRE SH 98 0:38:59 03:54 15.40
132 286 JOSEPH BERNARD V1 14 0:39:01 03:54 15.38
133 476 CAMAL THOMAS xxx   0:39:08 03:55 15.34
134 259 CABO THIBAUT SH 99 0:39:09 03:55 15.33
135 1060 WAGELMANS CLARISSE A1 2 0:39:12 03:55 15.31
136 639 BURON JEAN-YVES SH 100 0:39:24 03:56 15.23
137 1253 DISSAUX THOMAS SH 101 0:39:26 03:57 15.22
138 1551 BOUCKAERT STÉPHANE SH 102 0:39:31 03:57 15.19
139 1428 PEREZ RAPHAEL SH 103 0:39:31 03:57 15.19
140 1243 WARNOTTE JEAN-MICHEL V1 15 0:39:33 03:57 15.17
141 133 CULOT GREGORY V1 16 0:39:35 03:57 15.16
142 977 IVANOV EVGENY SH 104 0:39:37 03:58 15.15
143 1153 GAIFFE PAUL SH 105 0:39:40 03:58 15.13
144 646 SCHMETZ MICHAEL V1 17 0:39:42 03:58 15.12
145 825 BUCKLEY CILLIAN SH 106 0:39:42 03:58 15.12
146 1086 STORDEUR MÉLANIE SD 6 0:39:45 03:58 15.10
147 1424 VIEILVOYE CHARLOTTE SD 7 0:39:46 03:59 15.09
148 953 DEBRA DANIEL V1 18 0:39:51 03:59 15.06
149 1330 KREEMER FRANCOIS SH 107 0:39:52 03:59 15.05
150 419 MOSSADEQ RAYAN SH 108 0:39:54 03:59 15.04
151 11 TROIANO MICHAEL V1 19 0:39:55 03:59 15.04
152 984 VOGLAIRE JÉRÉMY SH 109 0:39:57 04:00 15.02
153 660 BOUGHRAD MOHAMED SH 110 0:39:59 04:00 15.01
154 662 PAPI CAROLINE SD 8 0:39:59 04:00 15.01
155 775 MATHONET RAPHAËL SH 111 0:40:03 04:00 14.99
156 819 THOMASSIN THIBAUT SH 112 0:40:06 04:01 14.97
157 26 ZIMMER DYLAN THOMAS V1 20 0:40:06 04:01 14.97
158 1508 NOËL TONY SH 113 0:40:16 04:02 14.90
159 1376 TIM HORION SH 114 0:40:22 04:02 14.87
160 53 PIRON DAMIEN SH 115 0:40:29 04:03 14.82
161 1260 SCHMITS THOMAS SH 116 0:40:30 04:03 14.82
162 523 SCHMIDT DIDIER V1 21 0:40:35 04:03 14.79
163 663 CATTARUZZA JORDAN SH 117 0:40:37 04:04 14.78
164 1552 BOUCKAERT BENJAMIN SH 118 0:40:46 04:05 14.72
165 830 MABILLE GEORGES V2 8 0:40:49 04:05 14.70
166 60 CALOZET DONATIEN SH 119 0:40:51 04:05 14.69
167 611 LOTTE AYRTON SH 120 0:40:51 04:05 14.69
168 879 IPACH PIERRE V2 9 0:40:57 04:06 14.66
169 156 JACOB CHRISTOPHE SH 121 0:40:59 04:06 14.64
170 1507 TSAGKAS CASSANDRA SD 9 0:41:05 04:06 14.61
171 949 LOGNARD EDWIN SH 122 0:41:06 04:07 14.60
172 44 ANDRE GREGORY SH 123 0:41:08 04:07 14.59
173 1044 COLLETTE JONATHAN SH 124 0:41:12 04:07 14.57
174 1106 LECLERCQ PHILIPPE V1 22 0:41:16 04:08 14.54
175 1284 PAULETTI YANNICK SH 125 0:41:16 04:08 14.54
176 649 DELVAUX LOIC JH 5 0:41:19 04:08 14.53
177 1043 NR 1043 xxx   0:41:19 04:08 14.53
178 260 BRY OLIVIER SH 126 0:41:19 04:08 14.53
179 695 TOMÉ JARDIN RÚBEN ANTÓNIO SH 127 0:41:22 04:08 14.51
180 483 HARDY HENRI-PIERRE V1 23 0:41:23 04:08 14.50
181 503 TOPALBEGOVIC AJLA SD 10 0:41:25 04:08 14.49
182 531 VANDORMAEL MARIE SD 11 0:41:25 04:08 14.49
183 1485 HUG LUDWIG SH 128 0:41:27 04:09 14.48
184 1575 L'HOEST CHARLOTTE SD 12 0:41:31 04:09 14.46
185 1275 BOVENS LAURENT SH 129 0:41:34 04:09 14.44
186 853 SONTAG THIERRY V1 24 0:41:35 04:09 14.43
187 937 LOUIS SÉBASTIEN V1 25 0:41:37 04:10 14.42
188 346 LAMBOTTE BENOIT V1 26 0:41:45 04:10 14.38
189 854 AGUS PAOLO V1 27 0:41:47 04:11 14.36
190 295 MAIRLOT ADRIEN JULES JH 6 0:41:47 04:11 14.36
191 1546 COOSEMANS MARIE SD 13 0:41:50 04:11 14.35
192 785 BERTRAND MICHEL V3 2 0:41:55 04:11 14.32
193 1025 PINSART LAURENT V1 28 0:41:58 04:12 14.30
194 290 BOMAN ROMAIN V1 29 0:42:01 04:12 14.28
195 902 VAN HEUVERSWYN JOAKIM SH 130 0:42:03 04:12 14.27
196 25 VINCENT THIBAULT FRANCK SH 131 0:42:04 04:12 14.27
197 960 DE GREGORIO FABRICE V1 30 0:42:05 04:12 14.26
198 103 CARVELA MARCIO SH 132 0:42:07 04:13 14.25
199 1498 MIGUEL ÁBALOS CABALLERO SH 133 0:42:11 04:13 14.23
200 1328 LEMAIRE GAËL SH 134 0:42:12 04:13 14.22
201 1147 LEDANT MARTIN SH 135 0:42:20 04:14 14.18
202 624 RONKART PHILIPPE V1 31 0:42:20 04:14 14.18
203 1505 VEECKMANS STÉPHANE SH 136 0:42:21 04:14 14.17
204 418 MARCHAL NICOLAS SH 137 0:42:28 04:15 14.13
205 1370 CORNET FABRICE V2 10 0:42:29 04:15 14.13
206 631 OGER SYLVAIN V1 32 0:42:29 04:15 14.13
207 1158 LAMBERT SIMON SH 138 0:42:30 04:15 14.12
208 126 CHICOT ALEX SH 139 0:42:30 04:15 14.12
209 1045 HERROUDI JAMEL V1 33 0:42:32 04:15 14.11
210 146 OZER LUCIEN JH 7 0:42:34 04:15 14.10
211 873 GERARD MICHAEL V1 34 0:42:36 04:16 14.09
212 371 PERSOON PIERRE SH 140 0:42:37 04:16 14.08
213 213 NR 213 xxx   0:42:41 04:16 14.06
214 446 LEHANCE PASCAL V1 35 0:42:41 04:16 14.06
215 967 LION PASCAL V1 36 0:42:46 04:17 14.03
216 453 SCHAUTTEET SEBASTIEN SH 141 0:42:48 04:17 14.02
217 1280 KEBA CHRISTIAN SH 142 0:42:59 04:18 13.96
218 408 PHILIS LAMBRINY A1 3 0:42:59 04:18 13.96
219 1307 DANS JULIEN SH 143 0:43:03 04:18 13.94
220 954 HÉRION PHILIPPE V2 11 0:43:05 04:18 13.93
221 440 HACKING ETIENNE JH 8 0:43:24 04:20 13.83
222 236 SERRON VINCENT V1 37 0:43:26 04:21 13.82
223 1511 KERIS MONIQUE A2 1 0:43:28 04:21 13.81
224 1360 NR 1360 xxx   0:43:28 04:21 13.81
225 1000 SENARD ELOISE JF 1 0:43:31 04:21 13.79
226 1530 BEKHTAOUI YOUSSEF V1 38 0:43:34 04:21 13.78
227 486 GUIDOLIN JEANPIERRE V2 12 0:43:35 04:21 13.77
228 345 GOBATTO MARIO V1 39 0:43:37 04:22 13.76
229 127 BALTS DIDIER V2 13 0:43:41 04:22 13.74
230 1429 MANCA ANTONIO V1 40 0:43:41 04:22 13.74
231 1051 SPIJKERS ERWIN V1 41 0:43:42 04:22 13.73
232 1487 HUBERLAND VICTOR JH 9 0:43:42 04:22 13.73
233 441 PHILIPPART FABIAN V1 42 0:43:46 04:23 13.71
234 112 MINGUET OLIVIER V1 43 0:43:47 04:23 13.71
235 29 VANDEVEN SYLVAIN V1 44 0:43:48 04:23 13.70
236 151 LE VAN ALEX SH 144 0:43:48 04:23 13.70
237 814 GARROY CHRISTOPHE V1 45 0:43:51 04:23 13.69
238 217 LEONET NICOLAS SH 145 0:43:53 04:23 13.68
239 1495 LIBERT FLORENT SH 146 0:43:56 04:24 13.66
240 55 PIRENNE YVAN SH 147 0:43:57 04:24 13.66
241 1271 FLECHET LIONEL SH 148 0:43:59 04:24 13.65
242 1035 NR 1035 xxx   0:44:01 04:24 13.63
243 506 PROFITA PIERRE SH 149 0:44:02 04:24 13.63
244 121 DISPA BSILE SH 150 0:44:07 04:25 13.60
245 358 PHILIPPART DE FOY ADRIEN JH 10 0:44:10 04:25 13.59
246 101 DEFLANDRE GILLES SH 151 0:44:10 04:25 13.59
247 906 VAUDOISEY PASCAL V2 14 0:44:11 04:25 13.58
248 1403 PIROTON JEREMY SH 152 0:44:12 04:25 13.58
249 1482 GHYSE STÉPHANE SH 153 0:44:15 04:25 13.56
250 965 VAN DE WOUWER EMMANUEL V1 46 0:44:22 04:26 13.53
251 1506 BRUSKIN NICOLAS SH 154 0:44:22 04:26 13.53
252 1332 BOZ DENIS SH 155 0:44:22 04:26 13.53
253 49 DE LAMALLE EMILE JH 11 0:44:23 04:26 13.52
254 890 RIZZO LUCAS JH 12 0:44:23 04:26 13.52
255 694 DEL FORNO DAVID SH 156 0:44:24 04:26 13.52
256 804 DEL FORNO AMÉLIE SD 14 0:44:24 04:26 13.52
257 687 HEINZ ROBIN SH 157 0:44:27 04:27 13.50
258 350 SOSMAN EDDY V2 15 0:44:30 04:27 13.49
259 1297 CREZ ERIC V2 16 0:44:33 04:27 13.47
260 1037 RANDAZZO MICHAEL SH 158 0:44:40 04:28 13.44
261 281 DEMOL QUENTIN SH 159 0:44:42 04:28 13.43
262 357 LAHAYE OLIVIER V1 47 0:44:43 04:28 13.42
263 1055 FINK JOEL V2 17 0:44:48 04:29 13.40
264 1101 SOLHEID THIERRY V2 18 0:44:52 04:29 13.38
265 1112 NEARNO TONI SH 160 0:44:53 04:29 13.37
266 1395 SCHROYEN MICHAEL SH 161 0:44:55 04:29 13.36
267 300 VANGROOTLOON DIDIER MONIQUE SH 162 0:44:55 04:29 13.36
268 606 DAMBROISE KRITSTEL SD 15 0:45:01 04:30 13.33
269 1129 HENROTTE MICHEL V2 19 0:45:03 04:30 13.32
270 1264 CHARLIER ELINE SD 16 0:45:04 04:30 13.32
271 1547 DEEGAN JULIE A2 2 0:45:05 04:30 13.31
272 608 CARPENTIER GREGORY SH 163 0:45:07 04:31 13.30
273 205 MESSENS SERGE V2 20 0:45:09 04:31 13.29
274 800 MOSSOP ROISIN SD 17 0:45:11 04:31 13.28
275 769 HANUSSEK HERVÉ SH 164 0:45:14 04:31 13.27
276 39 GRAYET BENJAMIN SH 165 0:45:16 04:32 13.26
277 22 LAHAYE FRANCOIS SH 166 0:45:18 04:32 13.25
278 23 WERPIN NATHAN JH 13 0:45:19 04:32 13.24
279 1128 CZAJKOWSKI MATHIEU SH 167 0:45:23 04:32 13.22
280 32 CHOMBART CLEMENT SH 168 0:45:28 04:33 13.20
281 688 LECLERE SEBASTIEN SH 169 0:45:31 04:33 13.19
282 1464 BECHOUX LUC V2 21 0:45:31 04:33 13.19
283 430 DEVOS PHILIPPE V1 48 0:45:32 04:33 13.18
284 1131 BOULANGER PIERRE SH 170 0:45:35 04:33 13.17
285 401 DELEDICQUE JEAN LUC V2 22 0:45:36 04:34 13.16
286 119 DAVIN JEAN FRANCOIS SH 171 0:45:40 04:34 13.14
287 874 RUOTTE JULIEN SH 172 0:45:43 04:34 13.13
288 1570 DYKMANS ANTOINE SH 173 0:45:45 04:34 13.12
289 1473 VANWAMBEKE ALEXIS SH 174 0:45:46 04:35 13.11
290 979 CORTEQUISSE ROBIN SH 175 0:45:46 04:35 13.11
291 469 GREGOIRE EMILIEN SH 176 0:45:48 04:35 13.10
292 661 MAIRLOT PIERRE SH 177 0:45:52 04:35 13.08
293 761 FEY CÉLINE SD 18 0:45:53 04:35 13.08
294 1388 DERENNE CÉLINE SD 19 0:45:53 04:35 13.08
295 866 COUNET FLORIAN SH 178 0:45:54 04:35 13.08
296 467 GIGLIO GASPARE V2 23 0:45:54 04:35 13.08
297 834 HARMELING PASCAL V1 49 0:45:56 04:36 13.07
298 34 MATAGNE GEOFFREY SH 179 0:45:57 04:36 13.06
299 374 NR 374 xxx   0:45:58 04:36 13.06
300 981 BONSANG MAXIME SH 180 0:46:00 04:36 13.05
301 118 MATHOUL CHRISTOPHE PIERRE V1 50 0:46:00 04:36 13.05
302 462 CLOSE MATTHIEU SH 181 0:46:01 04:36 13.04
303 463 CLOSE SÉBASTIEN SH 182 0:46:02 04:36 13.04
304 925 DAMMANS DORIAN SH 183 0:46:02 04:36 13.04
305 1371 DRAGOZIS SARAH SD 20 0:46:05 04:36 13.02
306 617 TANS LAURENT SH 184 0:46:05 04:36 13.02
307 980 BODSON SEAN SH 185 0:46:06 04:37 13.02
308 124 WITTEVRONGEL CHRISTOPH V1 51 0:46:06 04:37 13.02
309 237 LAQDIM SOLAYMAN V1 52 0:46:07 04:37 13.01
310 1017 MOTTE COLINE SD 21 0:46:12 04:37 12.99
311 810 TAAVITSAINEN OSSI SH 186 0:46:16 04:38 12.97
312 107 AGUZZI RENÉ JEAN V2 24 0:46:20 04:38 12.95
313 1291 BAUCHE BERTRAND SH 187 0:46:24 04:38 12.93
314 1052 ESTRADA ARBOLEDA TOMER SH 188 0:46:28 04:39 12.92
315 158 MOESEN JEAN FR. SH 189 0:46:34 04:39 12.89
316 626 DELHOUGNE NICOLAS SH 190 0:46:36 04:40 12.88
317 1313 BONINI ROBIN SH 191 0:46:38 04:40 12.87
318 465 DELHOUGNE ANNE-SOPHIE SD 22 0:46:39 04:40 12.87
319 1532 DAVELOOSE MICHAEL SH 192 0:46:39 04:40 12.87
320 1006 DETAILLE DAVID SH 193 0:46:40 04:40 12.86
321 1399 SPRIMONT ARNAUD SH 194 0:46:42 04:40 12.85
322 359 DEJOIE PIERRE SH 195 0:46:43 04:40 12.85
323 1571 CALDART FABIAN V1 53 0:46:44 04:40 12.84
324 157 LEROY THIBAUT SH 196 0:46:45 04:40 12.84
325 375 BONY CLARA SD 23 0:46:47 04:41 12.83
326 674 FRANKEN MICHAËL SH 197 0:46:47 04:41 12.83
327 1489 CHAVANNE ANTOINE SH 198 0:46:48 04:41 12.82
328 423 SIMAL ANTHONY V1 54 0:46:49 04:41 12.82
329 1534 TSHINYAMA MARIE-ISABELLE A1 4 0:46:49 04:41 12.82
330 1345 HIMPE JEFFREY SH 199 0:46:52 04:41 12.81
331 931 PERIN AXEL SH 200 0:46:52 04:41 12.81
332 251 THYS TOON SH 201 0:46:52 04:41 12.81
333 1338 LICOT PHILIPPE V2 25 0:46:53 04:41 12.80
334 1321 NATALIS MICHEL V2 26 0:46:56 04:42 12.79
335 1303 TROMME DORIAN SH 202 0:46:57 04:42 12.78
336 140 DELRUELLE EDOUARD SH 203 0:46:57 04:42 12.78
337 1383 JURIN LIDIJA A1 5 0:47:00 04:42 12.77
338 1096 VANDEVELD MANUEL V1 55 0:47:00 04:42 12.77
339 654 NEURAY ISABELLE A1 6 0:47:00 04:42 12.77
340 1038 QUARANTA MICHAEL SH 204 0:47:01 04:42 12.76
341 1350 AYAOU NOAM SH 205 0:47:02 04:42 12.76
342 781 SEVRIN MICHAËL V1 56 0:47:02 04:42 12.76
343 1011 TUBEECKX FONS V3 3 0:47:03 04:42 12.76
344 862 FEY PHILIPPE V2 27 0:47:03 04:42 12.76
345 307 ARCHAMBLEU ETIENNE SH 206 0:47:05 04:42 12.75
346 1130 HENROTTE WENDY SD 24 0:47:07 04:43 12.74
347 684 WOJEIECHOWSKI FREDERIC SH 207 0:47:09 04:43 12.73
348 950 BOUHON UGO SH 208 0:47:14 04:43 12.71
349 1245 MINET ERIC V2 28 0:47:14 04:43 12.71
350 42 DORTU CLEMENT SH 209 0:47:15 04:43 12.70
351 875 JAMIN PHILIPPE V1 57 0:47:22 04:44 12.67
352 1282 WALRAVENS LÉA A3 1 0:47:24 04:44 12.66
353 932 PERIN ALEXIS SH 210 0:47:26 04:45 12.65
354 255 LAPRELE MICHEL V2 29 0:47:29 04:45 12.64
355 994 VAN BAAR JEROEN V1 58 0:47:30 04:45 12.64
356 869 BOSAK MAXIME SH 211 0:47:30 04:45 12.64
357 1151 DETROZ MARIE SD 25 0:47:31 04:45 12.63
358 474 MOUREAU OLIVIER xxx   0:47:31 04:45 12.63
359 1132 DEFRÈRE DENIS SH 212 0:47:32 04:45 12.63
360 48 LILOT BRICE PATRICE SH 213 0:47:32 04:45 12.63
361 1457 BLESER BENOIT V1 59 0:47:34 04:45 12.62
362 115 POLMANS REGINALD SH 214 0:47:34 04:45 12.62
363 356 BAUDOT CHRISTOPHE V1 60 0:47:36 04:46 12.61
364 665 DELHAYE MARIE-FRANCE A1 7 0:47:37 04:46 12.60
365 369 GRANDJEAN QUENTIN SH 215 0:47:37 04:46 12.60
366 829 DELFORGE THOMAS SH 216 0:47:42 04:46 12.58
367 1497 PIASTA PATRICE V2 30 0:47:43 04:46 12.58
368 1119 ROUFFA KALVIN SH 217 0:47:44 04:46 12.57
369 799 COPPIETERS WIM V1 61 0:47:45 04:46 12.57
370 35 JOWA PIERRE SH 218 0:47:45 04:46 12.57
371 690 LERUTH GUY SH 219 0:47:45 04:46 12.57
372 1047 ALLEPUZ FUSTER PAULA SD 26 0:47:46 04:47 12.56
373 353 BRICMAAN ROLAND V1 62 0:47:47 04:47 12.56
374 1061 VANSTRAELEN KOEN V1 63 0:47:49 04:47 12.55
375 1118 LAIDET BASTIEN SH 220 0:47:50 04:47 12.55
376 778 KEYEN CHRISTOPHE SH 221 0:47:54 04:47 12.53
377 1462 MUNNIX MATHIAS SH 222 0:47:57 04:48 12.52
378 412 HEYMAN OLIVIER SH 223 0:47:58 04:48 12.51
379 944 JAMOTTE AXELLE SD 27 0:48:01 04:48 12.50
380 945 MORAY LOÏC SH 224 0:48:01 04:48 12.50
381 1342 NINANE SÉBASTIEN SH 225 0:48:02 04:48 12.49
382 452 DUERINCKX BLAISE V2 31 0:48:04 04:48 12.49
383 633 ZANZEN FLORIAN SH 226 0:48:04 04:48 12.49
384 1059 ROMAN ARNAUD SH 227 0:48:05 04:48 12.48
385 786 NR 786 xxx   0:48:06 04:49 12.48
386 1390 WILLEMS TOM SH 228 0:48:06 04:49 12.48
387 149 LENGLOIS JULIEN SH 229 0:48:07 04:49 12.47
388 282 JACO JEREMIE SH 230 0:48:10 04:49 12.46
389 1105 COTEUR JEROEN SH 231 0:48:10 04:49 12.46
390 1444 NEARNO TANINA A1 8 0:48:12 04:49 12.45
391 56 NIESTEN CAROLE SD 28 0:48:12 04:49 12.45
392 1445 TRUSCIA VINCENT V1 64 0:48:12 04:49 12.45
393 1488 HUBERLAND JULIEN SH 232 0:48:13 04:49 12.45
394 413 BAIVERLIN MAXIME V1 65 0:48:13 04:49 12.45
395 1486 LEBRUN DAMIEN SH 233 0:48:14 04:49 12.44
396 1028 JACO FRÉDÉRIC V1 66 0:48:15 04:49 12.44
397 1010 NR 1010 xxx   0:48:17 04:50 12.43
398 253 MORRIER PIERRE V2 32 0:48:18 04:50 12.43
399 421 DENIS VINCENT V1 67 0:48:21 04:50 12.41
400 527 NEUVILLE CAROLINE xxx   0:48:21 04:50 12.41
401 529 SEGHERS JEROME SH 234 0:48:24 04:50 12.40
402 116 POLMANS RENAUD SH 235 0:48:26 04:51 12.39
403 1121 IAKUSHA IULIIA SD 29 0:48:27 04:51 12.39
404 1416 BASTIN GENEVIÈVE A1 9 0:48:29 04:51 12.38
405 1427 BOUILLON PIERRE V2 33 0:48:30 04:51 12.37
406 668 LONGRÉE CLÉMENT SH 236 0:48:40 04:52 12.33
407 1339 DOTHEE MARC xxx   0:48:41 04:52 12.33
408 1438 BAEYENS GILLES SH 237 0:48:46 04:53 12.31
409 1539 VIATOUR ANAÏS SD 30 0:48:46 04:53 12.31
410 827 LAINEZ PHILIPPE SH 238 0:48:46 04:53 12.31
411 892 MOURAUX THIERRY V2 34 0:48:48 04:53 12.30
412 301 HEYVAERT ADINDA LOUISA SD 31 0:48:48 04:53 12.30
413 1329 CATRICE FRÉDÉRIC SH 239 0:48:49 04:53 12.29
414 438 MARTINEZ AMELIA A1 10 0:48:50 04:53 12.29
415 132 FOGUENNE JEROME SH 240 0:48:52 04:53 12.28
416 1510 ANCION ETIENNE V1 68 0:48:54 04:53 12.27
417 1466 RAEMAEKERS FRANCOIS SH 241 0:48:55 04:53 12.27
418 31 WILLEM TOMMY SH 242 0:48:58 04:54 12.26
419 40 KARYDAS IOANNIS SH 243 0:48:58 04:54 12.26
420 1352 LENNERTS SÉBASTIEN SH 244 0:48:58 04:54 12.26
421 122 BEAUJEAN PASCAL V1 69 0:48:59 04:54 12.25
422 1448 PAILLOT MAXIME SH 245 0:49:00 04:54 12.25
423 1351 TOMBEUR ALAIN V2 35 0:49:02 04:54 12.24
424 1326 COLLELUORI SYLVIE A1 11 0:49:05 04:54 12.23
425 924 FERNANDEZ HERRERA BERNARD V1 70 0:49:06 04:55 12.22
426 1521 ARNAUD DIZIER SH 246 0:49:07 04:55 12.22
427 643 GERARD FABIEN SH 247 0:49:08 04:55 12.21
428 1293 FEDEROWICZ CÉDRIC SH 248 0:49:09 04:55 12.21
429 62 LOVETERE FABRIZIO V1 71 0:49:11 04:55 12.20
430 43 MORAY DIDIER V2 36 0:49:12 04:55 12.20
431 254 LEVAUX JULIEN SH 249 0:49:17 04:56 12.18
432 1246 DEZZA SAMIR SH 250 0:49:18 04:56 12.17
433 849 BROSET OLIVIER V2 37 0:49:20 04:56 12.17
434 959 DI CESARE STÉPHANE V1 72 0:49:25 04:56 12.14
435 1270 KREEMER THOMAS SH 251 0:49:26 04:57 12.14
436 360 OLYNYK MARC V1 73 0:49:27 04:57 12.14
437 645 STEILEN DIMITRI SH 252 0:49:27 04:57 12.14
438 137 NEUBERG FRANCE SD 32 0:49:32 04:57 12.12
439 1168 DEBROUX SACHA SH 253 0:49:34 04:57 12.11
440 623 VANDERBYSE LOIC SH 254 0:49:34 04:57 12.11
441 974 LARIVIÈRE VALENTIN SH 255 0:49:39 04:58 12.09
442 461 JUNGLING GÉRARD V2 38 0:49:40 04:58 12.08
443 616 NULENS CEDRIC V1 74 0:49:44 04:58 12.07
444 1099 LECOCQ RICHARD SH 256 0:49:44 04:58 12.07
445 1476 PEETERS ALEXANDRE V1 75 0:49:44 04:58 12.07
446 1475 GERMAIN FABIAN SH 257 0:49:45 04:58 12.06
447 1393 WOSZCZYK HUBERT SH 258 0:49:46 04:59 12.06
448 240 CULOT JEAN-CHRISTOPHE SH 259 0:49:48 04:59 12.05
449 1430 SANCHEZ ALVAREZ JOSÉ V1 76 0:49:52 04:59 12.04
450 1136 PAQUAY YANNICK SH 260 0:49:52 04:59 12.04
451 1379 FRISQUE ALEXIS V1 77 0:49:53 04:59 12.03
452 431 BRAUNS FABIAN V1 78 0:49:53 04:59 12.03
453 1369 LAFRATTA DANIEL V2 39 0:49:55 04:59 12.02
454 885 GODBILLE RODOLPHE SH 261 0:49:56 05:00 12.02
455 238 NR 238 xxx   0:49:57 05:00 12.02
456 1251 BANGELS JONATHAN SH 262 0:49:57 05:00 12.02
457 798 BONAFE SANDRA SH 263 0:50:05 05:00 11.98
458 1426 GRÉGOIRE CAROLINE A1 12 0:50:06 05:01 11.98
459 807 MORUZZI MICHELE SH 264 0:50:08 05:01 11.97
460 341 OGER STÉPHANE CLAUDE V1 79 0:50:08 05:01 11.97
461 348 ASSENMACKER KARL SH 265 0:50:09 05:01 11.97
462 644 QUENTIN QUINONEZ SH 266 0:50:11 05:01 11.96
463 1375 SEGERS ROEL V1 80 0:50:13 05:01 11.95
464 1288 DUPONT NOLWENN SD 33 0:50:15 05:01 11.94
465 1287 LEDOUBLE OLIVIER SH 267 0:50:15 05:01 11.94
466 1075 D'OVIDIO RAPHAEL V1 81 0:50:16 05:02 11.94
467 264 GRÉGOIRE EMILIE SD 34 0:50:17 05:02 11.94
468 1079 LA COLA GIOACHINO V2 40 0:50:18 05:02 11.93
469 1031 DENISSIO NAMSEY SD 35 0:50:18 05:02 11.93
470 38 DUCULOT MANON SD 36 0:50:18 05:02 11.93
471 50 DUPONT FRANCOIS SH 268 0:50:20 05:02 11.92
472 802 AGUZZI SARAH SD 37 0:50:21 05:02 11.92
473 997 PENNARTZ PIERRE SH 269 0:50:21 05:02 11.92
474 422 WARNY DIMITRI V1 82 0:50:27 05:03 11.90
475 494 MASSART MARGAUX SD 38 0:50:28 05:03 11.89
476 1460 FAORLIN FABRICCE V1 83 0:50:28 05:03 11.89
477 1117 PLOUMEN OLIVIER SH 270 0:50:34 05:03 11.87
478 620 DEVOS OLIVIER V1 84 0:50:38 05:04 11.85
479 638 GAUTIER STEVEN SH 271 0:50:39 05:04 11.85
480 828 ALLARD ALEXIS SH 272 0:50:39 05:04 11.85
481 1335 COSSE FRANÇOIS V2 41 0:50:41 05:04 11.84
482 910 BAELEN MICHAEL SH 273 0:50:41 05:04 11.84
483 63 GOUY RICHARD SH 274 0:50:43 05:04 11.83
484 848 BROSET THOMAS SH 275 0:50:49 05:05 11.81
485 926 SCHROYEN ALAIN V2 42 0:50:49 05:05 11.81
486 1265 LISIN OLIVIER SH 276 0:50:49 05:05 11.81
487 258 CHRETIEN DOMINIQUE A2 3 0:50:50 05:05 11.81
488 256 JASZCZUK HUGO SH 277 0:50:52 05:05 11.80
489 883 VLEUGELS CHRIS SH 278 0:50:53 05:05 11.79
490 941 VALLES FREDDY V2 43 0:50:54 05:05 11.79
491 865 PERIN MARC V2 44 0:50:54 05:05 11.79
492 1032 BONAZZA ISABELLE A2 4 0:50:55 05:05 11.79
493 882 CLAES WIM V2 45 0:50:56 05:06 11.78
494 881 TUYLS BRUNO V3 4 0:50:57 05:06 11.78
495 1392 BULS CHARLINE SD 39 0:50:58 05:06 11.78
496 1166 THERER ERIC V2 46 0:50:59 05:06 11.77
497 306 ENGELEN ANTOINE SH 279 0:51:00 05:06 11.77
498 1327 GESTER CELINE SD 40 0:51:02 05:06 11.76
499 1285 PHILLIPS KEVIN SH 280 0:51:04 05:06 11.75
500 699 TASSOT JC V1 85 0:51:06 05:07 11.74
501 1142 SCHRYMECKER JULIEN SH 281 0:51:10 05:07 11.73
502 224 MAGLIERI LUIS SH 282 0:51:11 05:07 11.73
503 1150 HELLER STEPHANE V2 47 0:51:12 05:07 11.72
504 651 LAVIOLETTE THEO JH 14 0:51:14 05:07 11.71
505 424 QUIRINY DOMINGO SH 283 0:51:14 05:07 11.71
506 534 ANCION JEAN-PASCAL V2 48 0:51:14 05:07 11.71
507 870 FABRY RÉMI SH 284 0:51:16 05:08 11.71
508 148 VANDER EYKEN AARON JH 15 0:51:17 05:08 11.70
509 1517 THIRIFAYS DELPHINE SD 41 0:51:17 05:08 11.70
510 1518 RADULESCU FLORENTIN V1 86 0:51:17 05:08 11.70
511 768 CRINE GAËLLE SD 42 0:51:18 05:08 11.70
512 221 DOSOGNE ARNAUD SH 285 0:51:19 05:08 11.70
513 1531 BAUDUIN PHILIPPE V2 49 0:51:23 05:08 11.68
514 943 TROQUET MÉDÉRIC V1 87 0:51:24 05:08 11.68
515 222 LUYMOEYEN JULIE SD 43 0:51:26 05:09 11.67
516 504 BORRELLI CHRISTINE A1 13 0:51:26 05:09 11.67
517 1281 TINCK DANIEL V4 1 0:51:27 05:09 11.66
518 898 WEUSTEN HUGO V2 50 0:51:27 05:09 11.66
519 1003 SENARD MARC V2 51 0:51:28 05:09 11.66
520 831 LASSARRADE PIERRE V1 88 0:51:30 05:09 11.65
521 765 FERNANDEZ RODRIGUEZ ELIO V1 89 0:51:30 05:09 11.65
522 7 HOGE PHILIPE V2 52 0:51:31 05:09 11.65
523 635 MEUNIER DAVID V1 90 0:51:31 05:09 11.65
524 1242 SLUZALEK JOANNA A1 14 0:51:33 05:09 11.64
525 973 LANGE PHILIPPE V2 53 0:51:33 05:09 11.64
526 1524 HERPS HENNY V3 5 0:51:34 05:09 11.64
527 971 BURHENNE MICHELLE A1 15 0:51:36 05:10 11.63
528 134 EVERS ANNE CATHERINE SD 44 0:51:36 05:10 11.63
529 1014 VOLPE MONICA xxx   0:51:38 05:10 11.62
530 1004 BERTRAND ADRIEN SH 286 0:51:46 05:11 11.59
531 1015 LISSOIR MARIE_FRANCE A2 5 0:51:47 05:11 11.59
532 764 FERNANDEZ RODRIGUEZ ANTONY SH 287 0:51:48 05:11 11.59
533 867 DI LUZIO ALEXANDRE SH 288 0:51:49 05:11 11.58
534 425 LECLERCQ BERNARD V1 91 0:51:49 05:11 11.58
535 840 CLAES RICHARD V2 54 0:51:49 05:11 11.58
536 650 NR 650 xxx   0:51:49 05:11 11.58
537 963 DUMONT DIRK V2 55 0:51:51 05:11 11.57
538 464 DELHOUGNE BERNARD V2 56 0:51:51 05:11 11.57
539 964 FIRRE CHRISTIAN V2 57 0:51:51 05:11 11.57
540 1263 HAERDEN YVES V3 6 0:51:51 05:11 11.57
541 4 INAMA CÉDRIC CHRISTINE SH 289 0:51:54 05:11 11.56
542 239 LAMBRICHTS LOÏC SH 290 0:51:55 05:11 11.56
543 14 VERDIN VEO SD 45 0:51:55 05:11 11.56
544 437 GIANGIORDANO ANNE A1 16 0:51:55 05:11 11.56
545 1176 RIGO FRANÇOIS-MICHEL V1 92 0:51:55 05:11 11.56
546 776 LELOUP MICHEL V3 7 0:51:56 05:12 11.56
547 294 PAQUOT LAURENT NICOLAS SH 291 0:52:01 05:12 11.54
548 947 CASPERS RAPHAEL V1 93 0:52:03 05:12 11.53
549 880 GLAUDE FLORIAN SH 292 0:52:09 05:13 11.51
550 1290 FAGNERAY LAURIE SD 46 0:52:09 05:13 11.51
551 912 DELCOURT ANTOINE V1 94 0:52:09 05:13 11.51
552 435 DESSOUROUX RAPHAEL V1 95 0:52:10 05:13 11.50
553 970 MINGUET LAURA xxx   0:52:11 05:13 11.50
554 1005 SENARD LUCILE SD 47 0:52:12 05:13 11.50
555 1241 TROMME MANU V2 58 0:52:12 05:13 11.50
556 285 SOMMER LUCY JF 2 0:52:15 05:13 11.49
557 1359 GOURLAT EMMA SD 48 0:52:20 05:14 11.47
558 367 ABUAYIDA AHMAD SH 293 0:52:21 05:14 11.46
559 1111 LA ROSA GIUSI SD 49 0:52:23 05:14 11.46
560 1544 VARLET CLAUDE V3 8 0:52:23 05:14 11.46
561 679 GUEIBEN JEAN-PIERRE V1 96 0:52:26 05:15 11.45
562 1367 BENEDETTO THOMAS SH 294 0:52:27 05:15 11.44
563 1344 CHARLIER CONSTANCE SD 50 0:52:27 05:15 11.44
564 1422 HAGELSTEENS MARC V1 97 0:52:28 05:15 11.44
565 1358 CRÉMERS JULIEN SH 295 0:52:31 05:15 11.43
566 1484 GARCÍA RODRÍGUEZ ALEJANDRA SD 51 0:52:33 05:15 11.42
567 373 THEUNIS JOHN-ROSS SH 296 0:52:33 05:15 11.42
568 1366 DUCULOT ANTOINE SH 297 0:52:35 05:15 11.41
569 773 PIRARD ROMAIN SH 298 0:52:35 05:15 11.41
570 234 LEGIPONT CHRISTOPHE V1 98 0:52:35 05:15 11.41
571 225 LALOUX BERNARD V2 59 0:52:37 05:16 11.41
572 903 JUDITH BOSCH JUDITH A1 17 0:52:37 05:16 11.41
573 154 HAMBYE ADAM JH 16 0:52:38 05:16 11.40
574 376 BURY GAUTIER SH 299 0:52:40 05:16 11.40
575 886 JACQUET STEVE SH 300 0:52:40 05:16 11.40
576 889 VEDTS DIMITHILDE SD 52 0:52:40 05:16 11.40
577 108 TONN DIDIER V1 99 0:52:41 05:16 11.39
578 1167 LACRIOLA JONATHAN SH 301 0:52:43 05:16 11.38
579 231 REMACLE BRIGITTE A2 6 0:52:45 05:16 11.38
580 257 DEVILLERS FRANCOIS SH 302 0:52:47 05:17 11.37
581 1504 LONDOT DELPHINE A1 18 0:52:49 05:17 11.36
582 940 VALLES JULIEN SH 303 0:52:52 05:17 11.35
583 1049 CLAESSENS FONZ V2 60 0:52:53 05:17 11.35
584 403 PAOLO PIANCATELLI V2 61 0:52:55 05:17 11.34
585 1012 DULIER BENJAMIN SH 304 0:52:56 05:18 11.34
586 521 MATYJA WALTER V1 100 0:52:57 05:18 11.33
587 458 DJADA ANICET SH 305 0:52:58 05:18 11.33
588 818 STALLINGA ERIC V2 62 0:52:58 05:18 11.33
589 1317 CUYVERS MICHEL SH 306 0:52:59 05:18 11.33
590 223 VANLIMBERGEN INGRID A1 19 0:53:04 05:18 11.31
591 1421 NGUEMENI DJIEMENI ARNO V1 101 0:53:04 05:18 11.31
592 1262 VICKEVORST LUC V2 63 0:53:04 05:18 11.31
593 876 MUZZILLO LUIGI SH 307 0:53:12 05:19 11.28
594 1080 LONNEUX DANIEL V1 102 0:53:13 05:19 11.28
595 1502 WIJNS MONIQUE A2 7 0:53:18 05:20 11.26
596 678 WIJNS PASCAL V1 103 0:53:18 05:20 11.26
597 144 GEUSEBROUWERS CEDRIC SH 308 0:53:20 05:20 11.25
598 479 BOUS GRÉGORY V1 104 0:53:20 05:20 11.25
599 671 MANCONI SERENA SD 53 0:53:20 05:20 11.25
600 1431 VAN GORP MANON SD 54 0:53:22 05:20 11.25
601 526 CHARLIER PHILIPPE xxx   0:53:24 05:20 11.24
602 956 TOURNEMENNE CHRISTOPHE SH 309 0:53:25 05:20 11.24
603 1558 HARDY JEAN-MICHEL SH 310 0:53:26 05:21 11.23
604 1516 DUSSART JEAN-PIERRE V4 2 0:53:29 05:21 11.22
605 772 DE GIUSTI RAPHAEL SH 311 0:53:29 05:21 11.22
606 1261 LEVO PATRICK V1 105 0:53:29 05:21 11.22
607 653 DI MARIA DAMIEN SH 312 0:53:32 05:21 11.21
608 1478 CONROTTE MATHILDE SD 55 0:53:33 05:21 11.21
609 966 GARNIER STÉPHANIE SD 56 0:53:33 05:21 11.21
610 147 BEAUFAYS CHLOE SD 57 0:53:35 05:21 11.20
611 673 SEIVERT VALENTINE SD 58 0:53:35 05:21 11.20
612 1057 BONHOMME SÉBASTIEN SH 313 0:53:36 05:22 11.20
613 275 PAQUE MAXIME SH 314 0:53:37 05:22 11.19
614 18 WALRAVEN LEON V2 64 0:53:44 05:22 11.17
615 1041 JAMAR MICHEL V2 65 0:53:46 05:23 11.16
616 1254 MINET MARC V2 66 0:53:46 05:23 11.16
617 1361 CHAVÉE CHRISTOPHE SH 315 0:53:55 05:23 11.13
618 160 WADELEUX LUDOVIC SH 316 0:53:55 05:23 11.13
619 884 ROHAERT JOHAN V3 9 0:53:56 05:24 11.13
620 444 PATINET ROXANE JF 3 0:53:57 05:24 11.12
621 519 DRIESSENS CHRISTINE A1 20 0:54:01 05:24 11.11
622 480 BOUS JEAN-PHILIPPE V1 106 0:54:01 05:24 11.11
623 698 MORHET JEROME V1 107 0:54:02 05:24 11.11
624 1316 CUYVERS CÉDRIC SH 317 0:54:03 05:24 11.10
625 700 MORHET AMELIE SD 59 0:54:04 05:24 11.10
626 284 SOMMER ANJA A2 8 0:54:05 05:24 11.10
627 481 BOUS CÉDRIC SH 318 0:54:07 05:25 11.09
628 1152 COOLS FANNY SD 60 0:54:08 05:25 11.09
629 789 LAMBOTTE FABRICE V1 108 0:54:09 05:25 11.08
630 812 MARTIN GERARD V2 67 0:54:09 05:25 11.08
631 850 MALCORPS LAURENT SH 319 0:54:10 05:25 11.08
632 535 VERSCHUEREN NATHALIE A1 21 0:54:10 05:25 11.08
633 155 DENOEL PHILIPPE SH 320 0:54:14 05:25 11.07
634 1391 MILCAMPS VINCENT SH 321 0:54:14 05:25 11.07
635 1077 MINOT JEAN-FRANÇOIS V1 109 0:54:15 05:25 11.06
636 1319 VANDERSCHUEREN PHILIPPE V1 110 0:54:15 05:25 11.06
637 1374 COHEUR JOFFREY SH 322 0:54:16 05:26 11.06
638 1292 AYHAN SERCAN SH 323 0:54:17 05:26 11.06
639 992 QUARTA TIZIANO V1 111 0:54:18 05:26 11.05
640 3 RYSENAER JEAN JACQUES V4 3 0:54:18 05:26 11.05
641 985 MARCY BRUNO V1 112 0:54:18 05:26 11.05
642 999 FRESON MANU SH 324 0:54:19 05:26 11.05
643 1380 GEORGE KARIN A1 22 0:54:21 05:26 11.04
644 33 FREY TORSTN V1 113 0:54:22 05:26 11.04
645 851 LIBON OLIVIER V1 114 0:54:22 05:26 11.04
646 911 POULOS ATHANASIOS SH 325 0:54:24 05:26 11.03
647 995 SERVAIS JUSTINE SD 61 0:54:24 05:26 11.03
648 439 MOUREAU ANDRE V2 68 0:54:26 05:27 11.03
649 1093 MARCOTTY JÉRÔME SH 326 0:54:28 05:27 11.02
650 1538 DELMAL CHARLOTTE SD 62 0:54:29 05:27 11.02
651 1007 HENROTAY FREDERIC V1 115 0:54:29 05:27 11.02
652 1249 GENON KEVIN SH 327 0:54:30 05:27 11.01
653 1238 DEJARDIN CHRISTOPHE SH 328 0:54:32 05:27 11.01
654 230 VANDAMME MICHELLE A2 9 0:54:32 05:27 11.01
655 1365 BALDEWYNS AUDREY SD 63 0:54:33 05:27 11.00
656 1456 LAMBERT GEOFFREY SH 329 0:54:34 05:27 11.00
657 1257 BALDEWYNS CHRISTOPHE V1 116 0:54:35 05:27 11.00
658 1402 ARNOULD ETIENNE V2 69 0:54:35 05:27 11.00
659 1002 ARNOULD NATHALIE A1 23 0:54:35 05:27 11.00
660 1 BARTOCCI DANILO DOMENICO V2 70 0:54:36 05:28 10.99
661 475 MOUREAU VALENTIN JH 17 0:54:38 05:28 10.99
662 351 DE HARENNE GAUTHIER JH 18 0:54:38 05:28 10.99
663 1405 CHABOT PATRICIA A1 24 0:54:39 05:28 10.98
664 1396 HADJIDIMITRIOU STELIO V2 71 0:54:41 05:28 10.98
665 655 ILES MATILDA SD 64 0:54:42 05:28 10.97
666 1471 DAS RAPHAËL SH 330 0:54:43 05:28 10.97
667 1082 LAHAYE JACQUES V2 72 0:54:43 05:28 10.97
668 1336 PAQUE FRANÇOIS-XAVIER SH 331 0:54:44 05:28 10.97
669 24 SACRÉ NICOLAS ANDRÉ JH 19 0:54:47 05:29 10.96
670 110 BEUSINNE FABIENNE A2 10 0:54:49 05:29 10.95
671 405 GENE PETERS A2 11 0:54:52 05:29 10.94
672 955 JAMAR PASCAL V2 73 0:54:53 05:29 10.94
673 487 DEFAWE VERONIQUE A2 12 0:54:56 05:30 10.93
674 788 SMITZ ALICE SD 65 0:54:56 05:30 10.93
675 1294 GRZESINSKI QUENTIN SH 332 0:54:56 05:30 10.93
676 445 GILLON PATRICK V2 74 0:54:57 05:30 10.92
677 450 NGUEMENI IMPORT V1 117 0:54:59 05:30 10.92
678 1404 BERNARD ALEXIS SH 333 0:55:00 05:30 10.91
679 1474 DE MEYER VERONIQUE A1 25 0:55:00 05:30 10.91
680 1341 HENNES DAMIEN V1 118 0:55:01 05:30 10.91
681 1453 GRAINDORGE SEBASTIEN SH 334 0:55:01 05:30 10.91
682 1573 DOLORIS MEHDI SH 335 0:55:01 05:30 10.91
683 1340 DEMOULIN VANESSA A1 26 0:55:02 05:30 10.91
684 1305 MINET GUILLAUME SH 336 0:55:02 05:30 10.91
685 794 CAILLABA LAURENT V2 75 0:55:02 05:30 10.91
686 957 LEONARD LAURENT V1 119 0:55:03 05:30 10.90
687 636 GELDOF CELINE SD 66 0:55:04 05:30 10.90
688 524 BURTON LAURENT V1 120 0:55:05 05:30 10.90
689 1120 VENEZIANO CARINE A1 27 0:55:10 05:31 10.88
690 1161 DEPREZ FABIAN SH 337 0:55:12 05:31 10.87
691 1324 LAURENT SUBHASH V1 121 0:55:15 05:31 10.86
692 757 STALLINGA RON V2 76 0:55:17 05:32 10.86
693 102 CREEMERS FANNY ANGIE SD 67 0:55:20 05:32 10.85
694 1160 BURNAY DAVID SH 338 0:55:20 05:32 10.85
695 305 EPINOSA DIGO V3 10 0:55:21 05:32 10.84
696 1368 ESPINOSA SEGRARIO A3 2 0:55:21 05:32 10.84
697 1308 DURAND YVES V2 77 0:55:25 05:32 10.83
698 958 LAURENT ISABELLE A2 13 0:55:25 05:32 10.83
699 243 HOULLEZ PATRICE V2 78 0:55:28 05:33 10.82
700 242 NYSSEN FABIENNE A1 28 0:55:29 05:33 10.82
701 861 BAK-GEERINCK AGATA SD 68 0:55:30 05:33 10.81
702 141 FRANKEN MARC JULIEN V3 11 0:55:31 05:33 10.81
703 833 HAMELRYCKX DELPHINE A1 29 0:55:33 05:33 10.80
704 1347 DILIBERTO ADRIANE SD 69 0:55:37 05:34 10.79
705 249 WEINBLUM MICHEL V3 12 0:55:37 05:34 10.79
706 263 RAMIREZ ALFONSO SH 339 0:55:38 05:34 10.79
707 344 EL AHMADI AHMED SH 340 0:55:44 05:34 10.77
708 1520 DELGADO SILVIA SD 70 0:55:45 05:34 10.77
709 1519 DELGADO FERNANDO V2 79 0:55:45 05:34 10.77
710 1397 BINDELS MONIQUE A2 14 0:55:49 05:35 10.75
711 968 LION IVANA SD 71 0:55:50 05:35 10.75
712 1126 CHARBON LAURENT SH 341 0:55:53 05:35 10.74
713 488 SMEETS FRANCE A1 30 0:55:56 05:36 10.73
714 1450 FRÉRARD GRÉGORY SH 342 0:55:58 05:36 10.72
715 59 HUMBLET CLEMENCE SD 72 0:55:58 05:36 10.72
716 986 PLUYMERS ASKALÉ JF 4 0:55:58 05:36 10.72
717 1337 LIBENS YVES V1 122 0:56:04 05:36 10.70
718 787 VEGA SEVERINO V2 80 0:56:06 05:37 10.70
719 934 GILSON SYLVIE A1 31 0:56:12 05:37 10.68
720 1289 LAMBERTZ ARNAUD V1 123 0:56:12 05:37 10.68
721 1469 WEBER LIDVINE SD 73 0:56:15 05:37 10.67
722 507 FRANCISCO DANIEL NAVARO V1 124 0:56:16 05:38 10.67
723 1039 KAILS MICHEL V2 81 0:56:16 05:38 10.67
724 1415 SACRE BERNARD SH 343 0:56:16 05:38 10.67
725 988 GILISSEN MICHEL V2 82 0:56:20 05:38 10.65
726 1334 PADOAN MARTA SD 74 0:56:24 05:38 10.64
727 1113 MARTELANGE STÉPHANIE A1 32 0:56:27 05:39 10.63
728 935 ZEDAZI CHAKIB SH 344 0:56:28 05:39 10.63
729 961 LHONEUX CAROLINE SD 75 0:56:30 05:39 10.62
730 1418 MICHA ALINE SD 76 0:56:31 05:39 10.62
731 1419 SZYMANOWSKI RACHEL SD 77 0:56:31 05:39 10.62
732 1536 LOUIS EMILIE SD 78 0:56:34 05:39 10.61
733 302 VILAIN JEANMICHEL SH 345 0:56:36 05:40 10.60
734 1076 HENROTTTIN BERNARD V1 125 0:56:41 05:40 10.59
735 1070 JOINE XAVIER V1 126 0:56:45 05:40 10.58
736 1078 ROEBROECK YVES V1 127 0:56:48 05:41 10.57
737 1477 ERPICUM ALICE SD 79 0:56:49 05:41 10.56
738 1178 KNEIP NICOLAS SH 346 0:56:50 05:41 10.56
739 19 HUMBLET ERIC MARIE V2 83 0:56:53 05:41 10.55
740 1417 PIROTTE BERNARD V3 13 0:56:54 05:41 10.55
741 468 STAS ZOE SD 80 0:56:54 05:41 10.55
742 683 CHAPAUX JULIEN SH 347 0:56:56 05:42 10.54
743 473 HABIBI SARA SD 81 0:56:56 05:42 10.54
744 795 LINTERMANS PASCAL V1 128 0:57:00 05:42 10.53
745 1364 SIMIOLI JEAN-PHILIPPE SH 348 0:57:02 05:42 10.52
746 692 NSIMBA NELSON SH 349 0:57:07 05:43 10.51
747 693 MARIEN FRANCOIS SH 350 0:57:08 05:43 10.50
748 1501 ALSHAB MAXIME SH 351 0:57:11 05:43 10.50
749 1509 MICHAUX CÉLINE A1 33 0:57:11 05:43 10.50
750 248 EL-HANI SELIM SH 352 0:57:12 05:43 10.49
751 859 WARNIER LONNY SH 353 0:57:16 05:44 10.48
752 792 THEUNIS LODE V1 129 0:57:16 05:44 10.48
753 901 AKÇA MIKAIL SH 354 0:57:17 05:44 10.48
754 1411 HELLINX FRANK V2 84 0:57:18 05:44 10.47
755 837 BAUDOUX BENOIT V2 85 0:57:20 05:44 10.47
756 625 HOFFMAN TAMARA A1 34 0:57:21 05:44 10.46
757 952 TILLIEUX GUY V3 14 0:57:21 05:44 10.46
758 1318 TOUMSIN CHRISTOPHE SH 355 0:57:24 05:44 10.46
759 914 DEPREZ HERVÉ V2 86 0:57:24 05:44 10.46
760 1162 DI MARIA STEPHEN SH 356 0:57:24 05:44 10.46
761 352 NR 352 xxx   0:57:27 05:45 10.45
762 1247 BEARZATTO CLAUDIA A2 15 0:57:30 05:45 10.44
763 1103 ILONA LUKASZEWSKA xxx   0:57:31 05:45 10.43
764 442 MICHEL FABIENNE A1 35 0:57:31 05:45 10.43
765 297 DEFLANDRE GUILIAN SH 357 0:57:32 05:45 10.43
766 1446 GROSCH FABIAN V1 130 0:57:34 05:45 10.43
767 509 LAMI LAMI V2 87 0:57:35 05:45 10.42
768 349 RUTH ADELIN V2 88 0:57:36 05:46 10.42
769 1541 DUPONT SEBASTIEN SH 358 0:57:38 05:46 10.41
770 1315 HAUSEUX CHRISTOPHE V2 89 0:57:38 05:46 10.41
771 1016 GHILAIN ANDRÉ V3 15 0:57:41 05:46 10.40
772 1248 PETERS CLÉMENCE SD 82 0:57:41 05:46 10.40
773 1442 WAUTHIER DIMITRI SH 359 0:57:41 05:46 10.40
774 1467 LAURENT GROSCH V1 131 0:57:42 05:46 10.40
775 343 BAELDE FREDERIC SH 360 0:57:43 05:46 10.40
776 1064 KOOLS RAMON V2 90 0:57:43 05:46 10.40
777 1309 VIGNEAUX STEVE SH 361 0:57:45 05:46 10.39
778 512 FANIEL ANNE A3 3 0:57:48 05:47 10.38
779 106 WEBER GILBERTE A3 4 0:57:48 05:47 10.38
780 921 MATAGNE SANDRA A1 36 0:57:50 05:47 10.38
781 128 POLET GERALDINE SD 83 0:57:53 05:47 10.37
782 969 LENAERTS PHILIPPE V3 16 0:57:53 05:47 10.37
783 972 FESTRAETS DIDIER V2 91 0:57:54 05:47 10.37
784 1252 GEELEN VÉRONIQUE SD 84 0:57:56 05:48 10.36
785 138 MARQUES RAPHAEL V1 132 0:57:56 05:48 10.36
786 634 VAN DUYSE NATHALIE SD 85 0:57:56 05:48 10.36
787 838 SCHIETSE KOEN V3 17 0:57:56 05:48 10.36
788 1465 BERTRAND ANTOINE SH 362 0:57:58 05:48 10.35
789 539 BILLEN ISABELLE A1 37 0:57:59 05:48 10.35
790 1145 JEUNECHAMPS PASCAL SH 363 0:58:05 05:48 10.33
791 246 THONON JACKY V1 133 0:58:06 05:49 10.33
792 432 SANFILIPPO CORALIE A1 38 0:58:09 05:49 10.32
793 615 KRAUS PIERRE HENRI SH 364 0:58:09 05:49 10.32
794 696 DUYSINX MICHAEL SH 365 0:58:12 05:49 10.31
795 1440 PIERRE BASTIEN SH 366 0:58:12 05:49 10.31
796 456 DERWAE DIDIER V1 134 0:58:14 05:49 10.31
797 227 LOMBARD XAVIER SH 367 0:58:16 05:50 10.30
798 893 ARAAR IHEB V1 135 0:58:16 05:50 10.30
799 856 STALS MICHEL V3 18 0:58:17 05:50 10.30
800 52 LOUIS RENAUD SH 368 0:58:17 05:50 10.30
801 1127 MARMOL ALIZÉE SD 86 0:58:22 05:50 10.28
802 1155 MORNARD MARIE SD 87 0:58:25 05:50 10.27
803 1108 HENNY MANDERVELD V1 136 0:58:26 05:51 10.27
804 844 MIRRER JOLANDA A2 16 0:58:27 05:51 10.27
805 402 PEETERS SOPHIE SD 88 0:58:29 05:51 10.26
806 514 D'HEUR BRADLEY SH 369 0:58:30 05:51 10.26
807 1483 COSIO NICOLAS SH 370 0:58:31 05:51 10.26
808 515 D'HEUR MIKE SH 371 0:58:31 05:51 10.26
809 1387 PAPADIMITRIOU DIMITRI SH 372 0:58:32 05:51 10.25
810 990 MILCENT BERNHART V3 19 0:58:33 05:51 10.25
811 1135 CRUTZEN VICTORIA SD 89 0:58:34 05:51 10.25
812 1134 PION ODILE SD 90 0:58:34 05:51 10.25
813 1273 BARILLARI DIDIER V1 137 0:58:36 05:52 10.24
814 1050 JANSSENS INGE A1 39 0:58:38 05:52 10.24
815 123 DI GIUSEPPE DAVID SH 373 0:58:38 05:52 10.24
816 142 PROUMEN DIDIER V2 92 0:58:42 05:52 10.22
817 47 CHAPELIER PAULINE SD 91 0:58:45 05:52 10.22
818 46 NICOLAS SCHIFFLERS SH 374 0:58:45 05:52 10.22
819 887 VANWYNSBERGHE EDOUARD SH 375 0:58:47 05:53 10.21
820 1067 VAN ROOIJ EUGENE xxx   0:58:48 05:53 10.21
821 603 MAFIT CELINE SD 92 0:58:49 05:53 10.20
822 951 MICHOTTE AUDREY SD 93 0:58:51 05:53 10.20
823 1385 PIRARD FLORENCE SD 94 0:58:51 05:53 10.20
824 1526 CLAESSENS JEROEN V1 138 0:58:53 05:53 10.19
825 676 ZOU TIFA SD 95 0:58:54 05:53 10.19
826 1377 DICK ALEXEI SH 376 0:58:54 05:53 10.19
827 610 GERARD NICOLAS V2 93 0:58:57 05:54 10.18
828 846 HOOGENRAAD MARCEL V1 139 0:58:58 05:54 10.18
829 1434 DUCULOT BENJAMIN SH 377 0:59:00 05:54 10.17
830 632 BOSCH JEROME V1 140 0:59:03 05:54 10.16
831 899 GIELKENS MANON A1 40 0:59:08 05:55 10.15
832 895 WIJNANDS RUDY V2 94 0:59:08 05:55 10.15
833 1024 VAN HEUSDEN LINDA SD 96 0:59:09 05:55 10.15
834 484 COUQUELET VANJA A1 41 0:59:11 05:55 10.14
835 897 UMMELS ZUSANNE A1 42 0:59:12 05:55 10.14
836 1259 VANHERCK BENJAMIN SH 378 0:59:12 05:55 10.14
837 763 VAN CRIEKINGE JAN V2 95 0:59:12 05:55 10.14
838 908 LEROUX VALENTINE SD 97 0:59:12 05:55 10.14
839 896 SMEETS JAN V4 4 0:59:13 05:55 10.14
840 1481 LECLERC CHRISTIANE A3 5 0:59:13 05:55 10.14
841 640 ADAM MARINE SD 98 0:59:14 05:55 10.13
842 1353 TAMIR MORAD V1 141 0:59:16 05:56 10.13
843 1373 LÉVÊQUE LOUIS SH 379 0:59:16 05:56 10.13
844 1515 GUARINO ANTONIO V4 5 0:59:17 05:56 10.12
845 117 BOUCHAT MICHEL JOSÉ V2 96 0:59:18 05:56 10.12
846 510 TIHON BENEDICTE A2 17 0:59:20 05:56 10.12
847 1522 GARCIA CHRISTOPHE V1 142 0:59:22 05:56 10.11
848 415 PIROSON CHRISTIAN V1 143 0:59:24 05:56 10.10
849 784 PEETERS AUDREY SD 99 0:59:25 05:56 10.10
850 1256 LIROT LAURENT SH 380 0:59:26 05:57 10.10
851 1027 VALDES HERVÉ SH 381 0:59:27 05:57 10.10
852 201 VILOLAINE BERNARD SD 100 0:59:30 05:57 10.09
853 1058 PLUYMERS LAURENT V1 144 0:59:33 05:57 10.08
854 783 SIMON VALÉRIE A1 43 0:59:34 05:57 10.08
855 1494 FANIEL LUC V3 20 0:59:34 05:57 10.08
856 1310 NOOTENS CYRIELLE SD 101 0:59:37 05:58 10.07
857 1244 KARAKURT CAGLA SD 102 0:59:38 05:58 10.06
858 69 DEGER HERVE SH 382 0:59:40 05:58 10.06
859 497 LAMORTE ROCCO V2 97 0:59:40 05:58 10.06
860 159 ERNOTTE JULIE SD 103 0:59:43 05:58 10.05
861 1412 MACHIELS CARMEN A1 44 0:59:45 05:58 10.04
862 642 XAVIER ROSSI SH 383 0:59:47 05:59 10.04
863 262 COURTIN GAETAN SH 384 0:59:47 05:59 10.04
864 269 WILMART GILLES V1 145 0:59:48 05:59 10.04
865 1493 DELVOIE PIERRE V2 98 0:59:49 05:59 10.03
866 45 CESA RAPHAL SH 385 0:59:50 05:59 10.03
867 493 FERNANDEZ DEL CAMPO LUDOVIC SH 386 0:59:50 05:59 10.03
868 363 PAQUES NATHALIE A1 45 0:59:51 05:59 10.03
869 1179 KYNDT LAURA xxx   0:59:53 05:59 10.02
870 681 LAURENT BÉNÉDICTE A1 46 0:59:57 06:00 10.01
871 1042 JAMAR ANTOINE SH 387 0:59:59 06:00 10.01
872 54 MOORS XAVIER V1 146 1:00:03 06:00 9.99
873 793 RIVET CLÉMENCE SD 104 1:00:03 06:00 9.99
874 1529 MANOCH DICK V2 99 1:00:05 06:00 9.99
875 143 HAILLOT THEOPHANE SH 388 1:00:06 06:01 9.99
876 538 VANDENBERGH MANON SD 105 1:00:06 06:01 9.99
877 12 NKAKU LORIS SH 389 1:00:07 06:01 9.98
878 771 SCHMETZ MAITE SD 106 1:00:07 06:01 9.98
879 1175 HARVENGT JULIE SD 107 1:00:08 06:01 9.98
880 1021 ACHTERBERG CRISTEL A1 47 1:00:08 06:01 9.98
881 13 VILAIN NATTY SD 108 1:00:09 06:01 9.98
882 1054 JANSEN GEERT V1 147 1:00:14 06:01 9.96
883 1109 POLET SABINE A1 48 1:00:14 06:01 9.96
884 1304 GRANDJEAN BENOÎT V2 100 1:00:20 06:02 9.95
885 1276 HERBILLON GUILLAUME SH 390 1:00:22 06:02 9.94
886 1159 BE0844516345 MAXIM TÖLLER SH 391 1:00:27 06:03 9.93
887 472 CARREA SABRINA SD 109 1:00:30 06:03 9.92
888 362 DENOEL PHILIPE V1 148 1:00:30 06:03 9.92
889 291 DI FILIPPO SOLENE JF 5 1:00:31 06:03 9.92
890 292 DI FILIPPO YVAN V2 101 1:00:32 06:03 9.91
891 293 COEN MARIE-FRANCE A1 49 1:00:32 06:03 9.91
892 1320 BUYCK LAURA SD 110 1:00:33 06:03 9.91
893 1069 BRIJNAERT JEFF V1 149 1:00:35 06:03 9.91
894 1479 CABARTEUX PHILIPPE V1 150 1:00:37 06:04 9.90
895 1480 GISCHER BENJAMIN V1 151 1:00:37 06:04 9.90
896 36 MANON RIGOT SD 111 1:00:38 06:04 9.90
897 1322 GRANDJEAN JUDITH SD 112 1:00:40 06:04 9.89
898 702 MASON LAURENT SH 392 1:00:41 06:04 9.89
899 1323 RENQUIN ANNE-FRANÇOISE A2 18 1:00:41 06:04 9.89
900 1139 BELLEFROID JULIE SD 113 1:00:41 06:04 9.89
901 1140 HENVEAUX PIERRE SH 393 1:00:41 06:04 9.89
902 129 FOCCROULLE FANNY SD 114 1:00:44 06:04 9.88
903 206 MULLER DELPHINE SD 115 1:00:46 06:05 9.88
904 888 FAWE ANNE-FRANÇOISE SD 116 1:00:48 06:05 9.87
905 1279 GIUDICE CHRISTEL SD 117 1:00:50 06:05 9.87
906 58 SCAVONE MICGAEL SH 394 1:00:50 06:05 9.87
907 1156 LECLERCQ LAURENT V1 152 1:00:51 06:05 9.86
908 1454 BRICHAUX NICOLAS SH 395 1:00:53 06:05 9.86
909 1258 ROYER JULIE SD 118 1:00:56 06:06 9.85
910 1133 JOST FRANK V2 102 1:00:58 06:06 9.84
911 1455 SCHMITZ VIRGINIE SD 119 1:01:00 06:06 9.84
912 266 RABHIOU ANISSA SD 120 1:01:04 06:06 9.83
913 647 AKMESE ZUMRA SD 121 1:01:05 06:06 9.83
914 1400 ARNOULD MARIE SD 122 1:01:08 06:07 9.82
915 1401 GATELLIER JULIEN SH 396 1:01:08 06:07 9.82
916 1107 KEMPS FRANS V3 21 1:01:09 06:07 9.81
917 759 SUTERA MICHEL V2 103 1:01:10 06:07 9.81
918 1523 CELIS LOÏC V1 153 1:01:12 06:07 9.81
919 1572 CHANTRAINE VÉRONIQUE SD 123 1:01:14 06:07 9.80
920 1437 PENDERS ANNE-CATHERINE SD 124 1:01:21 06:08 9.78
921 304 KRETTELS ELISA SD 125 1:01:22 06:08 9.78
922 278 DUBOURG PIERRE V1 154 1:01:25 06:08 9.77
923 609 JANSSEN RAPHAEL V1 155 1:01:26 06:08 9.77
924 51 VANOORSCHOT LOLA SD 126 1:01:27 06:09 9.77
925 1141 DIRICK QUENTIN xxx   1:01:27 06:09 9.77
926 1157 VANCASTER MÉLISSA SD 127 1:01:29 06:09 9.76
927 272 BULTOT JEAN-NOEL V2 104 1:01:30 06:09 9.76
928 927 RAHIER THIERRY V2 105 1:01:30 06:09 9.76
929 120 GILLET CHRISTOPHE ROBERT V1 156 1:01:31 06:09 9.76
930 675 DUBOIS MURIEL A1 50 1:01:34 06:09 9.75
931 1491 VONNÈCHE WILLIAM SH 397 1:01:42 06:10 9.73
932 1420 KRAFFT GAËTAN SH 398 1:01:43 06:10 9.72
933 1148 PION SOPHIE SD 128 1:01:47 06:11 9.71
934 536 HEYVAERT FREDERIC SH 399 1:01:47 06:11 9.71
935 1386 LEJEUNE SERGINE SD 129 1:01:50 06:11 9.71
936 618 STIENNON DOMINIQUE A3 6 1:01:50 06:11 9.71
937 1056 DEPREZ AUDREY A1 51 1:01:59 06:12 9.68
938 1557 HARDY JEAN-CLAUDE V3 22 1:02:07 06:13 9.66
939 1535 SLUYSMANS CHRISTELLE A1 52 1:02:08 06:13 9.66
940 948 GILLOT DAMIEN V1 157 1:02:17 06:14 9.64
941 370 RAMAEKERS INE A1 53 1:02:18 06:14 9.63
942 1331 FAMERIE LAURENCE A1 54 1:02:18 06:14 9.63
943 987 PLUYMERS JEAN-MARC V1 158 1:02:25 06:14 9.62
944 774 JACQUES ELODIE SD 130 1:02:25 06:14 9.62
945 1435 BANDURA BERTILLE SD 131 1:02:27 06:15 9.61
946 1439 DYKMANS IVAN V2 106 1:02:27 06:15 9.61
947 666 ANDRE FLORIE SD 132 1:02:29 06:15 9.61
948 664 DUMONT KARELLE SD 133 1:02:30 06:15 9.60
949 361 LOSCIUTO SALVATORE V3 23 1:02:35 06:15 9.59
950 298 GEORGES FLORENCE SD 134 1:02:40 06:16 9.58
951 299 SCHILS VINCENT SH 400 1:02:40 06:16 9.58
952 612 MACK CHRISTAN SH 401 1:02:43 06:16 9.57
953 613 DEHARD SANDRINE SD 135 1:02:45 06:16 9.56
954 203 VERVOIR AUDE A1 55 1:02:47 06:17 9.56
955 202 STIEL FABIENNE A2 19 1:02:47 06:17 9.56
956 204 BALHAN CATHERINE A2 20 1:02:47 06:17 9.56
957 1266 GENDEBIEN ELSA SD 136 1:02:48 06:17 9.56
958 627 MICHIELS OLIVIER JEAN-MARIE V1 159 1:02:48 06:17 9.56
959 843 JANSEN GIJS V3 24 1:02:49 06:17 9.55
960 265 HENRION SOPHIE SD 137 1:02:53 06:17 9.54
961 1545 DENOEL ESTELLE A1 56 1:02:54 06:17 9.54
962 489 DI NARO GIOVANNI SH 402 1:02:56 06:17 9.54
963 1472 LEFEVRE FRANCOISE A2 21 1:02:58 06:18 9.53
964 1567 DERWAEL JEAN-MARIE V2 107 1:03:02 06:18 9.52
965 1463 SCHELFAUT FRANCOISE A2 22 1:03:07 06:19 9.51
966 836 DESMET DIDIER V3 25 1:03:09 06:19 9.50
967 835 DELETRAIN LINDA xxx   1:03:11 06:19 9.50
968 991 DELBECQUE MAUD A1 57 1:03:11 06:19 9.50
969 500 KINET MARC V1 160 1:03:11 06:19 9.50
970 976 LIÉNARD SABINE A1 58 1:03:12 06:19 9.50
971 498 TONDELLIER OLIVIER V1 161 1:03:13 06:19 9.49
972 499 BARTHOLOME BERNARD V1 162 1:03:14 06:19 9.49
973 268 BERNY NICOLAS SH 403 1:03:16 06:19 9.49
974 1022 HABETS MANON A1 59 1:03:25 06:20 9.46
975 891 RIZZO ENRICO V2 108 1:03:32 06:21 9.45
976 1306 DELVILLE CHRISTINE A2 23 1:03:35 06:21 9.44
977 1527 BOONSTRA PETER V1 163 1:03:39 06:22 9.43
978 1528 BRUIJNEN JOHAN V1 164 1:03:39 06:22 9.43
979 677 RAMA NATHALIE A1 60 1:03:40 06:22 9.43
980 451 DELCOURT DOMINIQUE A2 24 1:03:41 06:22 9.42
981 1123 HENQUET NICOLAS V1 165 1:03:41 06:22 9.42
982 1143 WILLIAMS MIHAELA A2 25 1:03:41 06:22 9.42
983 815 KAIRIS SOPHIE SD 138 1:03:48 06:23 9.41
984 1470 BEAUVOIS PAULINE SD 139 1:03:49 06:23 9.40
985 516 D'HEUR JEAN-MARC V2 109 1:03:54 06:23 9.39
986 518 PETITJEAN ROHNNY V2 110 1:03:55 06:23 9.39
987 878 MIKES SYLVAIN V1 166 1:03:58 06:24 9.38
988 877 DANLOY VALÉRIE A1 61 1:03:58 06:24 9.38
989 1072 VERGETIN THIBAUT JH 20 1:04:02 06:24 9.37
990 1073 JAMAR GREGORY SH 404 1:04:02 06:24 9.37
991 852 WILHELMUS HUGO V2 111 1:04:06 06:24 9.36
992 1389 WILLEMS DOMINIQUE V2 112 1:04:08 06:25 9.36
993 842 HORRION JÉRÉMY SH 405 1:04:09 06:25 9.36
994 841 FRAINEUX LAURA SD 140 1:04:09 06:25 9.36
995 855 KAPTEIN FRANK V2 113 1:04:09 06:25 9.36
996 104 DRUART DANIEL SH 406 1:04:09 06:25 9.36
997 1423 KOJETSKA IVANA SD 141 1:04:13 06:25 9.35
998 1564 DENISE LAMKIN SD 142 1:04:14 06:25 9.34
999 928 COOLS RACHEL A1 62 1:04:15 06:25 9.34
1000 1277 VEITHEN DIDIER V2 114 1:04:16 06:25 9.34
1001 659 HENDRIX AIMÉE A1 63 1:04:17 06:26 9.34
1002 1065 RETZ MARIËLLE A2 26 1:04:18 06:26 9.33
1003 279 PIRNAY MICHEL V1 167 1:04:22 06:26 9.32
1004 1408 GIJSEN MARTINE SD 143 1:04:22 06:26 9.32
1005 125 FLEURY ANGELIQUE A1 64 1:04:26 06:26 9.31
1006 1115 THIRY STEPHANIE SD 144 1:04:32 06:27 9.30
1007 1543 NR 1543 xxx   1:04:39 06:28 9.28
1008 847 LEO JANSSEN V3 26 1:04:40 06:28 9.28
1009 1267 MARSOUL JULIE SD 145 1:04:41 06:28 9.28
1010 1354 ELSEN BENOIT SH 407 1:04:42 06:28 9.28
1011 136 NICOLET PHILIPPE V1 168 1:04:43 06:28 9.27
1012 1441 RENKIN MARINE SD 146 1:04:54 06:29 9.25
1013 780 DE VINCENZO CELINE A1 65 1:04:57 06:30 9.24
1014 443 PATINET OPHELIE JF 6 1:05:01 06:30 9.23
1015 17 LEEMANS JEAN-FRANCOIS SH 408 1:05:07 06:31 9.22
1016 982 ISTAES DANIELLE A2 27 1:05:10 06:31 9.21
1017 247 DESONNAY DIDIER V2 115 1:05:10 06:31 9.21
1018 6 SERVAIS ANTOINE V2 116 1:05:14 06:31 9.20
1019 365 NR 365 xxx   1:05:23 06:32 9.18
1020 368 DELYAR RASOUL JH 21 1:05:24 06:32 9.18
1021 364 JASER ALAA SH 409 1:05:24 06:32 9.18
1022 767 LEMPEREUR VINCENT V1 169 1:05:32 06:33 9.16
1023 37 RIGOT MICHEL V3 27 1:05:32 06:33 9.16
1024 470 REMONT PAULINE xxx   1:05:34 06:33 9.15
1025 471 DELEUZE JULIEN xxx   1:05:35 06:33 9.15
1026 936 SALVO MARIELLA A1 66 1:05:38 06:34 9.14
1027 1311 REMY CAMILLE SD 147 1:05:38 06:34 9.14
1028 208 LION SOLÈNE SD 148 1:05:39 06:34 9.14
1029 993 BAYONNET JULIEN SH 410 1:05:39 06:34 9.14
1030 1298 LAUREYS HUGO SH 411 1:05:40 06:34 9.14
1031 1299 LAUREYS STEVEN V2 117 1:05:42 06:34 9.13
1032 942 HERVELLE NATHALIE SD 149 1:05:44 06:34 9.13
1033 1301 PELZER FABRICE V1 170 1:05:44 06:34 9.13
1034 1122 LAMARRE ALEXANDRE SH 412 1:05:56 06:35 9.10
1035 619 LEJOLY CELINE SD 150 1:06:00 06:36 9.09
1036 817 FABRIS MICHAËL SH 413 1:06:02 06:36 9.09
1037 1443 BLANSAER LIESBETH SD 151 1:06:04 06:36 9.08
1038 372 STARCK MARIE NOELLE A2 28 1:06:04 06:36 9.08
1039 1432 FRANSOLET VIRGINIE A1 67 1:06:07 06:37 9.08
1040 602 GOFFINET CAROLINE A1 68 1:06:11 06:37 9.07
1041 601 CSIK NICOLAS V1 171 1:06:11 06:37 9.07
1042 857 COLLINET JACQUELIINE A2 29 1:06:17 06:38 9.05
1043 816 ZARATTIN JONATHAN SH 414 1:06:19 06:38 9.05
1044 1492 MARCHETTA SOFIA SD 152 1:06:20 06:38 9.05
1045 1490 MAGRADZÉ MARIE SD 153 1:06:20 06:38 9.05
1046 1164 AVGOUSTINATOS CHANTAL A3 7 1:06:21 06:38 9.05
1047 296 LEFEVRE MELANIE SD 154 1:06:23 06:38 9.04
1048 153 BAILLY CHRISTELE A1 69 1:06:23 06:38 9.04
1049 61 TAMIR CHRISINE SD 155 1:06:24 06:38 9.04
1050 340 HOUBEN YVONNE SD 156 1:06:30 06:39 9.03
1051 1407 MALBURNY SARAH SD 157 1:06:38 06:40 9.01
1052 1406 WUYTENS INGRID A1 70 1:06:38 06:40 9.01
1053 996 BREYER MARC V3 28 1:06:38 06:40 9.01
1054 1278 VOLDERS NOÉMIE JF 7 1:06:39 06:40 9.00
1055 1255 VERLINDE MARIE-PAULE A2 30 1:06:39 06:40 9.00
1056 1433 DUBOIS MARIE A1 71 1:06:44 06:40 8.99
1057 1019 VAN NOORDEN MEIJKE A2 31 1:06:48 06:41 8.98
1058 1018 DUIJVESTIJN MARIANNE A3 8 1:06:49 06:41 8.98
1059 1020 BLEZER JOSE A2 32 1:06:49 06:41 8.98
1060 1283 MARIQUE PIERRE-XAVIER SH 415 1:06:50 06:41 8.98
1061 1300 PELZER FABRICE V1 172 1:06:50 06:41 8.98
1062 811 LEMMENS JULIE SD 158 1:06:51 06:41 8.98
1063 273 NR 273 xxx   1:06:52 06:41 8.98
1064 1295 SAINT-REMI MICHEL V2 118 1:06:52 06:41 8.98
1065 998 AGUIAR SERENA SD 159 1:06:56 06:41 8.97
1066 1001 AGUIAR CRISTOBAL V3 29 1:06:57 06:42 8.96
1067 1381 TIHON DIDIER V2 119 1:06:57 06:42 8.96
1068 1382 TIHON CHANTAL A2 33 1:06:57 06:42 8.96
1069 1137 LACROSSE MAUD SD 160 1:06:58 06:42 8.96
1070 1116 NIJS DOMINIQUE A3 9 1:07:19 06:44 8.92
1071 1023 HULS LIESBETH A2 34 1:07:22 06:44 8.91
1072 135 BLONDEAU STEPHANIE SD 161 1:07:22 06:44 8.91
1073 894 WEIDE TAMARA A1 72 1:07:23 06:44 8.91
1074 1384 STOCKIS CÉLINE SD 162 1:07:27 06:45 8.90
1075 1333 DETRIXHE CAROLE A1 73 1:07:28 06:45 8.90
1076 641 NOEL FANCHON SD 163 1:07:29 06:45 8.89
1077 777 ENGELBEL SÉBASTIEN SH 416 1:07:30 06:45 8.89
1078 1100 SPITS INGRID A1 74 1:07:33 06:45 8.88
1079 1114 GOFFAUX NATHALIE A1 75 1:07:36 06:45 8.88
1080 511 VANDENBLINK VERDIANE A1 76 1:07:38 06:46 8.87
1081 871 KLAUNER CHRISTOPHE V1 173 1:07:47 06:47 8.85
1082 872 KLAUNER FRANK V1 174 1:07:48 06:47 8.85
1083 228 VERLAINE CATHERINE A2 35 1:07:48 06:47 8.85
1084 669 LONGRÉE LUC V2 120 1:07:52 06:47 8.84
1085 491 FERRANTE PASCAL xxx   1:07:52 06:47 8.84
1086 946 LONGRÉE MATHILDE SD 164 1:07:55 06:47 8.84
1087 939 LIMBOURG CASSANDRA SD 165 1:07:57 06:48 8.83
1088 938 GILTAY ALOÏSE SD 166 1:07:58 06:48 8.83
1089 434 KESZLER BELINDA A1 77 1:07:58 06:48 8.83
1090 428 FINK CAMILLE SD 167 1:08:09 06:49 8.81
1091 427 ORSINI MELANIE SD 168 1:08:09 06:49 8.81
1092 1554 ROSSIUS EDWIN V1 175 1:08:17 06:50 8.79
1093 1553 BABOJA OLGA A2 36 1:08:17 06:50 8.79
1094 813 BAUTE MARC V3 30 1:08:18 06:50 8.79
1095 130 COSME INGRID SD 169 1:08:29 06:51 8.76
1096 308 KABEYA MPOYI V2 121 1:08:29 06:51 8.76
1097 628 MALHERBE CHRISTIME A3 10 1:08:29 06:51 8.76
1098 131 BOUTAY JEAN FRACOIS V1 176 1:08:31 06:51 8.76
1099 417 TIMMERMANS MARIE A1 78 1:08:32 06:51 8.76
1100 416 REGINSTER STÉPHANIE A1 79 1:08:32 06:51 8.76
1101 766 COUNSON CHRISTELLE SD 170 1:08:33 06:51 8.76
1102 1302 MULYK PATRICIA SD 171 1:08:38 06:52 8.74
1103 1409 RIGO PATRICK V2 122 1:08:38 06:52 8.74
1104 1146 MULYK CARL SH 417 1:08:38 06:52 8.74
1105 490 BRUNO ADRIANA xxx   1:08:40 06:52 8.74
1106 1414 DE TROCH ANNE-MARIE A1 80 1:08:43 06:52 8.73
1107 1413 D’ EXELLE SUZY A1 81 1:08:43 06:52 8.73
1108 1459 JADOUL APOLLINE SD 172 1:08:48 06:53 8.72
1109 1461 MAIRLOT MARTIN SH 418 1:08:50 06:53 8.72
1110 1458 JADOUL EMILE V2 123 1:08:51 06:53 8.72
1111 433 KESZLER ALEXANDER V4 6 1:08:51 06:53 8.72
1112 1452 STASSART ARSENE SH 419 1:08:52 06:53 8.71
1113 1451 FURUNDARENA MAITE SD 173 1:08:56 06:53 8.71
1114 209 COLLIGNON ELODIE SD 174 1:09:05 06:54 8.69
1115 680 FLORKIN JULIEN SH 420 1:09:08 06:55 8.68
1116 1362 STRAMARE MAURO xxx   1:09:09 06:55 8.68
1117 1296 VAN ROOSBROECK SANDRINE A1 82 1:09:29 06:57 8.64
1118 1496 ROLAND STEPHANIE SD 175 1:09:30 06:57 8.64
1119 1286 BANDURA LAURA SD 176 1:09:30 06:57 8.64
1120 152 LODATO SERGE SH 421 1:09:32 06:57 8.63
1121 20 LELONCHAY ENZO LAURENT JH 22 1:09:34 06:57 8.63
1122 57 BADA KEVI SH 422 1:09:34 06:57 8.63
1123 629 LODATO SALVATORE SH 423 1:09:35 06:57 8.63
1124 1314 GROSJEAN VINCENT V2 124 1:09:42 06:58 8.61
1125 1563 WEVER ANNE SD 177 1:09:44 06:58 8.61
1126 111 VAN AALEN LIESBETH A2 37 1:09:50 06:59 8.59
1127 845 YEDEMA MARLIES A2 38 1:09:51 06:59 8.59
1128 210 BEINE CATHERINE A3 11 1:09:56 06:59 8.58
1129 211 LEEMANS MÉLANIE SD 178 1:09:56 06:59 8.58
1130 1525 TROQUETE MARIE JOSÈ A2 39 1:10:00 07:00 8.57
1131 1068 STALLINGA MARION A2 40 1:10:00 07:00 8.57
1132 1062 ZWARTEPOORTE WILLIAM V3 31 1:10:01 07:00 8.57
1133 1154 NR 1154 xxx   1:10:16 07:01 8.54
1134 682 CHAPAUX PHILIPPE V3 32 1:10:37 07:04 8.50
1135 1009 WEERTZ RAPHAËL V2 125 1:10:40 07:04 8.49
1136 347 KATZSCHNER DENISE A1 83 1:10:44 07:04 8.48
1137 607 POSTMA NANCY SD 179 1:10:45 07:04 8.48
1138 1138 NOTET SARAH SD 180 1:10:48 07:05 8.48
1139 1165 BOVY FLORIE SD 181 1:10:49 07:05 8.47
1140 27 MOUTHAAN FRANS V3 33 1:11:02 07:06 8.45
1141 1274 DEJONG MIREILLE A1 84 1:11:04 07:06 8.45
1142 805 LAMBERT BRUNO V3 34 1:11:04 07:06 8.45
1143 113 SEELEN IRIS A2 41 1:11:08 07:07 8.44
1144 916 VANDEVOORT ISABELLE SD 182 1:11:09 07:07 8.44
1145 1268 LUIS GÉRALDINE SD 183 1:11:34 07:09 8.39
1146 1269 LUIS MANUEL V2 126 1:11:35 07:09 8.38
1147 1499 HASARD CYNTHIA A1 85 1:11:38 07:10 8.38
1148 1500 BRISBOIS JENNIFER SD 184 1:11:39 07:10 8.38
1149 975 DOPPEE VIRGINIE SD 185 1:11:41 07:10 8.37
1150 670 TOME CATHERINE SD 186 1:11:47 07:11 8.36
1151 1312 PIQUET MANON SD 187 1:11:56 07:11 8.34
1152 1066 DUCKERS JESSICA A1 86 1:11:57 07:12 8.34
1153 983 SEMPELS VIRGINIE SD 188 1:12:03 07:12 8.33
1154 1468 BOHET LEAH JF 8 1:12:06 07:12 8.32
1155 1447 BOHET MAURICE SH 424 1:12:07 07:13 8.32
1156 1177 AMELIE HORDEBISE SD 189 1:12:08 07:13 8.32
1157 1363 NAGY JENNIFER SD 190 1:12:26 07:14 8.29
1158 287 DELGOFFE ALICE SD 191 1:12:27 07:15 8.28
1159 1149 ROELANDT MURIEL A2 42 1:12:27 07:15 8.28
1160 691 JABLONSKI NICOLAS SH 425 1:12:28 07:15 8.28
1161 21 LEROY ELODIE SD 192 1:12:28 07:15 8.28
1162 1436 COUSIN PATRICK V1 177 1:12:31 07:15 8.28
1163 288 SCHULEN MAXIM SH 426 1:12:44 07:16 8.25
1164 109 LÊ HUU-TUONG-VY A1 87 1:12:44 07:16 8.25
1165 1410 HONORÉ NATHALIE A1 88 1:12:55 07:17 8.23
1166 918 DONNERS STÉPHANE V1 178 1:13:08 07:19 8.21
1167 917 BASTIN NICOLAS V4 7 1:13:10 07:19 8.20
1168 762 GEERTS SIMON V3 35 1:13:11 07:19 8.20
1169 672 GEORGES ISABELLE A1 89 1:13:12 07:19 8.20
1170 758 LUCCHINI MARIA A2 43 1:13:13 07:19 8.20
1171 1565 CECCATO SARAH SD 193 1:14:11 07:25 8.09
1172 1566 SUTERA SARDO ANNA A2 44 1:14:15 07:25 8.08
1173 270 DIEPENDAEL VÉRONIQUE A1 90 1:14:16 07:25 8.08
1174 30 LAMINE MAGALI A1 91 1:14:26 07:26 8.06
1175 274 SCHILS JÉRÔME SH 427 1:14:33 07:27 8.05
1176 779 HENDRICKX ANNE SD 194 1:15:01 07:30 8.00
1177 1513 ROSA MARIE ANNE A2 45 1:15:18 07:32 7.97
1178 1514 RENETTE ANDRÉ V3 36 1:15:19 07:32 7.97
1179 220 VANGERTRUYDEN CHLOE SD 195 1:15:44 07:34 7.92
1180 1063 KOOLS GABRIELLA A1 92 1:16:26 07:38 7.85
1181 832 LANCKOHR MELODY SD 196 1:16:42 07:40 7.82
1182 860 VAN LOO STEPHANIE SD 197 1:17:05 07:42 7.79
1183 858 SCARINCI FABRICE SH 428 1:17:05 07:42 7.79
1184 1124 PAULY CELINE SD 198 1:18:29 07:51 7.65
1185 1125 BOUASSEL MARYSE A1 93 1:18:29 07:51 7.65
1186 303 BEN MASSAOUD MOHAMED SH 429 1:18:50 07:53 7.61
1187 824 ROGISTER CHRISTELLE SD 199 1:18:50 07:53 7.61
1188 496 VIRGINIE DUVERGER A1 94 1:18:56 07:53 7.60
1189 495 GUGLIELMO JULIE SD 200 1:18:57 07:54 7.60
1190 218 JAMINON ZOE SD 201 1:22:29 08:15 7.28
1191 114 ABIUSO DONATO V1 179 1:24:24 08:26 7.11
               
Nos dernières videos